Weather History for Santa Fe, NM

Change the Weather History Date:

Saturday, August 3, 2013

  Actual Average Record
Temperature  
Mean Temperature 73 °F -  
Max Temperature 87 °F 91 °F 95 °F (2008)
Min Temperature 59 °F 57 °F 54 °F (1998)
Cooling Degree Days 8    
Growing Degree Days 23 (Base 50)    
Moisture  
Dew Point 53 °F    
Average Humidity 55    
Maximum Humidity 93    
Minimum Humidity 25    
Precipitation  
Precipitation 0.00 in - - ()
Sea Level Pressure  
Sea Level Pressure 29.93 in    
Wind  
Wind Speed 10 mph (NW)    
Max Wind Speed 16 mph    
Max Gust Speed 23 mph    
Visibility 10 miles    
Events      
Averages and records for this station are not official NWS values.
T = Trace of Precipitation, MM = Missing Value Source: NWS Daily Summary

Daily Weather History Graph

Daily Weather History Graph

Search for Another Location

Airport:

Trip Planner

Search our weather history database for the weather conditions in past years. The results will help you decide how hot, cold, wet, or windy it might be!

Date:

Astronomy

Aug. 03, 2013 Rise Set
Actual Time 6:14 AM MDT 8:06 PM MDT
Civil Twilight 5:46 AM MDT 8:34 PM MDT
Nautical Twilight 5:12 AM MDT 9:07 PM MDT
Astronomical Twilight 4:36 AM MDT 9:43 PM MDT
Moon 3:27 AM MDT (8/3) 5:49 PM MDT (8/3)
Length of Visible Light 14h 47m
Length of Day
13h 51m
Waning Crescent, 9% of the Moon is Illuminated
Aug 3
Waning Crescent
Aug 6
New
Aug 14
First Quarter
Aug 20
Full
Aug 28
Last Quarter

Hourly Weather History & Observations

Time (MDT) Temp. Dew Point Humidity Pressure Visibility Wind Dir Wind Speed Gust Speed Precip Events Conditions
12:53 AM 64.0 °F 57.0 °F 78% 29.94 in 10.0 mi North 15.0 mph 23.0 mph N/A   Clear
1:53 AM 62.1 °F 57.0 °F 84% 29.92 in 10.0 mi North 16.1 mph - N/A   Clear
2:53 AM 61.0 °F 57.0 °F 87% 29.94 in 10.0 mi North 13.8 mph - N/A   Clear
3:53 AM 60.1 °F 57.0 °F 90% 29.92 in 10.0 mi North 9.2 mph - N/A   Clear
4:53 AM 60.1 °F 57.9 °F 93% 29.93 in 10.0 mi North 5.8 mph - N/A   Clear
5:53 AM 59.0 °F 57.0 °F 93% 29.94 in 10.0 mi North 9.2 mph - N/A   Clear
6:53 AM 60.1 °F 57.0 °F 90% 29.97 in 10.0 mi North 10.4 mph - N/A   Clear
7:53 AM 64.0 °F 57.9 °F 80% 29.97 in 10.0 mi North 12.7 mph - N/A   Clear
8:53 AM 68.0 °F 57.9 °F 70% 29.98 in 10.0 mi NNW 10.4 mph - N/A   Clear
9:53 AM 72.0 °F 57.0 °F 59% 30.00 in 10.0 mi North 9.2 mph - N/A   Clear
10:53 AM 75.0 °F 55.0 °F 50% 29.99 in 10.0 mi Variable 4.6 mph - N/A   Clear
11:53 AM 79.0 °F 54.0 °F 42% 29.97 in 10.0 mi WSW 9.2 mph - N/A   Clear
12:53 PM 82.0 °F 48.9 °F 31% 29.95 in 10.0 mi Variable 6.9 mph - N/A   Clear
1:53 PM 84.0 °F 50.0 °F 31% 29.94 in 10.0 mi WSW 12.7 mph 18.4 mph N/A   Clear
2:53 PM 84.0 °F 48.9 °F 29% 29.92 in 10.0 mi Variable 6.9 mph 19.6 mph N/A   Clear
3:53 PM 86.0 °F 48.9 °F 28% 29.90 in 10.0 mi West 12.7 mph 19.6 mph N/A   Clear
4:53 PM 87.1 °F 46.9 °F 25% 29.88 in 10.0 mi WSW 13.8 mph - N/A   Clear
5:53 PM 86.0 °F 46.9 °F 26% 29.88 in 10.0 mi WSW 13.8 mph 18.4 mph N/A   Clear
6:53 PM 84.0 °F 46.9 °F 27% 29.88 in 10.0 mi WSW 6.9 mph - N/A   Clear
7:53 PM 81.0 °F 48.9 °F 33% 29.88 in 10.0 mi SW 4.6 mph - N/A   Clear
8:53 PM 79.0 °F 50.0 °F 36% 29.91 in 10.0 mi Calm Calm - N/A   Clear
9:53 PM 75.9 °F 51.1 °F 42% 29.92 in 10.0 mi Calm Calm - N/A   Clear
10:53 PM 73.0 °F 52.0 °F 48% 29.93 in 10.0 mi Calm Calm - N/A   Clear
11:53 PM 72.0 °F 54.0 °F 53% 29.92 in 10.0 mi Calm Calm - N/A   Scattered Clouds